Regional Weather Roundup
Issued by NWS Kansas City/Pleasant Hill, MO

Home | Current Version | Previous Version | Graphics & Text | Print | Product List | Glossary Off
Versions: 1 2 3 4 5 6 7 8 9 10 11 12 13 14 15 16 17 18 19 20 21 22 23 24 25 26 27 28 29 30 31 32 33 34 35 36 37 38 39 40 41 42 43 44 45 46 47 48 49 50

000
ASUS43 KEAX 061110
RWREAX

WEATHER ROUNDUP FOR EASTERN KANSAS AND NORTHWEST MISSOURI
NATIONAL WEATHER SERVICE KANSAS CITY/PLEASANT HILL MO
500 AM CST TUE DEC 06 2016

KSZ040-057-103>105-MOZ028-029-037-043-061200-
...KANSAS CITY METROPOLITAN AREA...

CITY           SKY/WX    TMP DP  RH WIND       PRES   REMARKS
K.C. INTL      CLOUDY    35  27  72 N14       29.88R WCI  26
K.C. DOWNTOWN  CLOUDY    37  28  70 N17G28    29.87R WCI  27
LEES SUMMIT    CLOUDY    38  34  85 N23G32    29.86R WCI  27
OLATHE - IXD   CLOUDY    35  32  88 NW21G29   29.88R WCI  24
OLATHE - OJC   CLOUDY    36  31  82 N17G25    29.86R WCI  26
LAWRENCE       CLOUDY    34  27  75 NW18G26   29.91R WCI  23

$$

MOZ001>008-011>017-020>025-030>033-038>040-044>046-053-054-061200-
...NORTHERN AND CENTRAL MISSOURI...

CITY           SKY/WX    TMP DP  RH WIND       PRES   REMARKS
ST. JOSEPH     CLOUDY    34  28  79 N14       29.91R WCI  25
MOSBY          CLOUDY    36  32  87 NW18G25   29.86R WCI  25
WARRENSBURG    CLEAR     32  32 100 NW8       29.83R WCI  25
WHITEMAN AFB   CLOUDY    30  30 100 CALM      29.81R FOG
CLINTON        CLOUDY    32  32 100 CALM      29.83R
SEDALIA        FOG       31  30  96 NW7       29.82R VSB 1/2 WCI  24
WARSAW         NOT AVBL
CHILLICOTHE      N/A     35  34  96 NW7       29.85R WCI  29
KIRKSVILLE     CLOUDY    35  35 100 NW6       29.81S FOG     WCI  30

$$

MOZ041-047>049-056>058-063>065-088>090-097-061200-
...EASTERN AND SOUTHERN MISSOURI...

CITY           SKY/WX    TMP DP  RH WIND       PRES   REMARKS
ST. LOUIS INTL LGT RAIN  39  34  82 N6        29.75F WCI  35
SPIRIT OF STL  LGT RAIN  38  37  97 N6        29.76R WCI  33
COLUMBIA       FOG       30  30 100 NW6       29.78R VSB 1/4 WCI  24
JEFFERSON CITY FOG       32  32 100 NW3       29.80R VSB 1/4
ROLLA          CLOUDY    34  34 100 NW5       29.74R WCI  30
OSAGE BEACH    PTCLDY    31  30  96 NW3       29.79R
SPRINGFIELD    MOCLDY    34  33  96 NW8       29.77R FOG     WCI  27
BRANSON        PTCLDY    39  39 100 W3        29.77S FOG
JOPLIN         MOCLDY    34  34 100 CALM      29.82R
WEST PLAINS    CLOUDY    39  38  96 W7        29.74R FOG     WCI  34

$$

IAZ060-094-KSZ022-034>040-054-083-096-NEZ052-066-093-061200-
...KANSAS...SOUTHEAST NEBRASKA AND IOWA...

CITY           SKY/WX    TMP DP  RH WIND       PRES   REMARKS
TOPEKA         CLOUDY    34  26  72 NW12      29.93R WCI  25
MANHATTAN      CLEAR     32  20  61 VRB5      30.00R WCI  27
EMPORIA        CLOUDY    33  26  75 NW15      29.92R WCI  23
CHANUTE        CLOUDY    39  36  89 N16       29.86R WCI  30
WICHITA        PTCLDY    32  23  69 N20G31    29.95R WCI  20
OMAHA          CLEAR     27  16  63 NW14      29.95R WCI  16
LINCOLN        CLEAR     27  12  53 NW14      29.99R WCI  16
FALLS CITY     CLOUDY    31  20  63 NW15G26   29.94R WCI  20
LAMONI         CLOUDY    33  28  81 NW15      29.85R WCI  23
DES MOINES     FLURRIES  32  23  69 NW17G24   29.86F WCI  21

$$




USA.gov is the U.S. government's official web portal to all federal, state and local government web resources and services.